User: anonymous   Login
Location: Huntsville
(34.7300°N, 86.5860°W)
Time: 17:41:49
(UTC-06:00)
Language:

Inspiration4 - Orbit

View from above orbital plane
View from above orbital plane
View from above satellite
View from above satellite

Ground track
Ground track

The orbit data is extracted from the following two-line orbital elements,

1 49220U 21084A   21261.63337127  .00005888  00000-0  57298-4 0  9990
2 49220  51.6392 238.6496 0006471 286.8552  73.1520 15.67925576   402
Epoch (UTC): 18 September 2021 15:12:03
Eccentricity: 0.0006471
inclination: 51.6392°
perigee height: 360 km
apogee height: 369 km
right ascension of ascending node: 238.6496°
argument of perigee: 286.8552°
revolutions per day: 15.67925576
mean anomaly at epoch: 73.1520°
orbit number at epoch: 40

The dashed part of the orbit path shows where the satellite is in the earth's shadow,  

DLR